Location: Rounton
(54.4000°N, 1.3500°W)
Time: 20:42:34
(UTC+01:00)

deb Delta 126 - Pass Details

Date: 07 July 2022
Orbit: 1120 x 1970 km, 101.5° (Epoch: 17 August)

Event Time Altitude Azimuth Distance (km) Brightness Sun altitude
Rises 23:59:28 0° 29° (NNE) 5,064 ? -11.5°
Reaches altitude 10° 00:02:49 10° 20° (NNE) 4,166 ? -11.6°
Maximum altitude 00:11:14 31° 324° (NW) 2,974 ? -11.9°
Drops below altitude 10° 00:20:07 10° 269° (W) 4,399 ? -12.2°
Sets 00:23:46 0° 261° (W) 5,385 ? -12.3°
